Flag for West Bank Weather past 2 weeks in Hebron, West Bank

Now
59 °F

Clear.


Feels Like: 59 °F
Forecast: 37 / 51 °F
Wind: 5 mph from Southeast

Location: Ben Gurion International Airport

Current Time: Jan 27, 2015 at 9:26:17 PM

Latest Report: Jan 27, 2015 at 8:50 PM


Visibility: 10 mi

Pressure: 29.92 "Hg

Humidity: 72%

Dew point: 50 °F

Location of HebronLocation

Historic Weather in Hebron — Graph

°F

Hebron temperature yesterday

Maximum temperature yesterday: 70 °F (at 12:20 PM)
Minimum temperature yesterday: 52 °F (at 5:50 AM)
Average temperature yesterday: 59 °F

Past Weeks' High & Low Weather Summary

 TemperatureHumidityPressure
High77 °F (Jan 21, 2:20 PM)100% (Jan 18, 4:20 AM)30.33 "Hg (Jan 18, 4:20 AM)
Low41 °F (Jan 13, 3:50 AM)22% (Jan 24, 1:50 PM)29.92 "Hg (Jan 24, 1:20 AM)
Average55 °F70%30.12 "Hg
* Reported Jan 12 8:20 PM — Jan 27 8:20 PM, Hebron, Weather by CustomWeather, © 2014

Note: Actual official high and low records may vary slightly from our data, if they occured in-between our weather recording intervals... More about our weather records

Advertising

Hebron weather history for previous 24 hours

 ConditionsComfort  
Time TempWeatherWind HumidityBarometerVisibility
8:20 PM
Jan 27
57 °FClear.3 mph77%29.95 "Hg10 mi
7:50 PM59 °FClear.2 mph72%29.95 "Hg10 mi
7:20 PM59 °FClear.2 mph68%29.95 "Hg10 mi
6:50 PM59 °FClear.3 mph68%29.92 "Hg10 mi
6:20 PM61 °FClear.1 mph59%29.92 "Hg10 mi
5:50 PM61 °FClear.1 mph59%29.92 "Hg10 mi
5:20 PM63 °FClear.No wind52%29.92 "Hg10 mi
4:50 PM63 °FSunny.3 mph52%29.92 "Hg10 mi
4:20 PM64 °FSunny.2 mph46%29.92 "Hg10 mi
3:50 PM64 °FSunny.3 mph46%29.92 "Hg10 mi
3:20 PM66 °FSunny.5 mph40%29.95 "Hg10 mi
2:50 PM66 °FSunny.7 mph40%29.95 "Hg10 mi
2:20 PM66 °FSunny.7 mph40%29.95 "Hg10 mi
1:50 PM66 °FSunny.7 mph40%29.95 "Hg10 mi
1:20 PM66 °FSunny.7 mph40%29.95 "Hg10 mi
12:50 PM66 °FSunny.10 mph35%29.95 "Hg10 mi
12:20 PM66 °FSunny.9 mph40%29.98 "Hg10 mi
11:50 AM64 °FSunny.10 mph40%29.98 "Hg10 mi
11:20 AM64 °FClear.9 mph40%30.04 "Hg5 mi
10:50 AM63 °FClear.8 mph39%30.04 "Hg5 mi
10:20 AM61 °FClear.7 mph45%30.04 "Hg6 mi
9:50 AM59 °FSunny.7 mph51%30.04 "Hg10 mi
9:20 AM57 °FSunny.6 mph51%30.07 "Hg10 mi
8:50 AM54 °FSunny.1 mph63%30.07 "Hg10 mi
8:20 AM52 °FSunny.3 mph62%30.07 "Hg10 mi
7:50 AM50 °FSunny.2 mph67%30.07 "Hg10 mi
7:20 AM50 °FSunny.5 mph67%30.07 "Hg10 mi
6:50 AM50 °FSunny.6 mph67%30.07 "Hg10 mi
6:20 AM50 °FClear.3 mph67%30.07 "Hg10 mi
5:50 AM52 °FClear.3 mph67%30.07 "Hg10 mi
5:20 AM50 °FClear.3 mph76%30.04 "Hg10 mi
4:50 AM50 °FClear.2 mph76%30.07 "Hg10 mi
4:20 AM50 °FClear.5 mph76%30.04 "Hg10 mi
3:50 AM50 °FClear.1 mph76%30.07 "Hg10 mi
3:20 AM50 °FClear.2 mph82%30.07 "Hg10 mi
2:50 AM52 °FClear.3 mph77%30.07 "Hg10 mi
2:20 AM52 °FClear.3 mph77%30.09 "Hg10 mi
1:50 AM52 °FClear.2 mph77%30.09 "Hg10 mi
1:20 AM52 °FClear.2 mph82%30.09 "Hg10 mi
12:50 AM54 °FClear.2 mph77%30.09 "Hg10 mi
12:20 AM54 °FClear.3 mph72%30.09 "Hg10 mi
11:50 PM
Jan 26
54 °FClear.2 mph72%30.09 "Hg10 mi
11:20 PM54 °FClear.3 mph77%30.09 "Hg10 mi
10:50 PM55 °FClear.2 mph72%30.12 "Hg10 mi
10:20 PM54 °FClear.3 mph82%30.12 "Hg10 mi
9:50 PM55 °FClear.5 mph72%30.12 "Hg10 mi
9:20 PM55 °FClear.6 mph77%30.12 "Hg10 mi
Weather by CustomWeather, © 2014

See weather overviewHow to use our weather pages